Find Starlink 31555

NORAD ID: 59351 Int'l Des: 2024-060 Owner: SPXS Country: US Constellation: starlink operational
LEOCIRCULAR

实时位置

正在加载3D地球...

关于 Starlink 31555

正在加载描述...

即将过境

Passes for default location (London). Set your location on the main map for personalized predictions.

高度历史

Loading altitude history...

两行轨道根数

1 59351U 24060D 26126.83143910 -.00003403 00000-0 -11423-3 0 9997
2 59351 43.0030 291.6069 0001197 261.8740 98.1976 15.27569979119005
Epoch: May 6, 2026 • Age: 11 hours

当前状态

高度 486.7 km
速度 7.63 km/s
星下点 41.67°N, 61.26°E
发射日期 Mar 31, 2024
运行时间 2 years
类型 internet

技术详情

分类 Payload
质量 730.00 kg
干质量 700.00 kg
总质量 730.00 kg
长度 0.30 m
直径 4.10 m
跨度 29.00 m
形状 Box + pan
制造商 SPXS
平台类型 Starlink V2M
阶段状态 In Orbit
所有者/国家 SPXS/US

Most Searched